Weather History for KBED - October, 2013

Change the Weather History Date:

Wednesday, October 16, 2013

  Actual Average (KBOS) Record (KBOS)
Temperature  
Mean Temperature 54 °F 54 °F  
Max Temperature 61 °F 61 °F 88 °F (1897)
Min Temperature 46 °F 46 °F 30 °F (1883)
Degree Days  
Heating Degree Days 12 11  
Month to date heating degree days 144  
Since 1 July heating degree days 241  
Cooling Degree Days 0 0  
Month to date cooling degree days 6  
Year to date cooling degree days 746  
Growing Degree Days 4 (Base 50)    
Moisture  
Dew Point 50 °F    
Average Humidity 95    
Maximum Humidity 100    
Minimum Humidity 68    
Precipitation  
Precipitation 0.00 in 0.13 in 2.64 in (1974)
Month to date precipitation 2.04  
Year to date precipitation 34.10  
Snow  
Snow 0.00 in 0.00 in 0.00 in (2009)
Month to date snowfall 0.0  
Since 1 July snowfall 0.0  
Since 1 September snowfall 0.0  
Snow Depth -    
Sea Level Pressure  
Sea Level Pressure 30.10 in    
Wind  
Wind Speed 1 mph (NNE)    
Max Wind Speed 7 mph    
Max Gust Speed -    
Visibility 4 miles    
Events Fog    
T = Trace of Precipitation, MM = Missing Value Source: NWS Daily Summary

Daily Weather History Graph

Daily Weather History Graph

Search for Another Location

Airport or City:

Trip Planner

Search our weather history database for the weather conditions in past years. The results will help you decide how hot, cold, wet, or windy it might be!

Date:

Astronomy

Oct. 16, 2013 Rise Set
Actual Time 6:59 AM EDT 6:01 PM EDT
Civil Twilight 6:31 AM EDT 6:29 PM EDT
Nautical Twilight 5:58 AM EDT 7:02 PM EDT
Astronomical Twilight 5:25 AM EDT 7:34 PM EDT
Moon 4:41 PM EDT (10/16) 4:21 AM EDT (10/16)
Length of Visible Light 11h 58m
Length of Day
11h 01m
Waxing Gibbous, 94% of the Moon is Illuminated
Oct 16
Waxing Gibbous
Oct 18
Full
Oct 26
Last Quarter
Nov 3
New
Nov 10
First Quarter

Hourly Weather History & Observations

Time (EDT) Temp. Windchill Dew Point Humidity Pressure Visibility Wind Dir Wind Speed Gust Speed Precip Events Conditions
12:56 AM 48.9 °F - 48.9 °F 100% 30.21 in 10.0 mi Calm Calm - N/A   Overcast
1:27 AM 48.2 °F - 48.2 °F 100% 30.16 in 1.2 mi Calm Calm - N/A   Scattered Clouds
1:29 AM 48.2 °F - 48.2 °F 100% 30.16 in 0.8 mi Calm Calm - N/A   Mostly Cloudy
1:39 AM 46.4 °F - 46.4 °F 100% 30.15 in 2.5 mi Calm Calm - N/A   Partly Cloudy
1:46 AM 48.2 °F - 48.2 °F 100% 30.15 in 3.0 mi Calm Calm - N/A   Partly Cloudy
1:56 AM 48.0 °F - 48.0 °F 100% 30.19 in 2.0 mi Calm Calm - N/A   Scattered Clouds
2:03 AM 48.2 °F - 48.2 °F 100% 30.15 in 1.5 mi Calm Calm - N/A   Partly Cloudy
2:12 AM 46.4 °F - 46.4 °F 100% 30.15 in 0.8 mi Calm Calm - N/A   Mist
2:30 AM 46.4 °F - 46.4 °F 100% 30.14 in 0.2 mi Calm Calm - N/A Fog Fog
2:46 AM 46.4 °F 44.3 °F 44.6 °F 93% 30.13 in 1.0 mi East 4.6 mph - N/A   Mist
2:49 AM 46.4 °F 44.3 °F 46.4 °F 100% 30.12 in 3.0 mi East 4.6 mph - N/A   Mostly Cloudy
2:56 AM 46.0 °F - 46.0 °F 100% 30.16 in 9.0 mi Calm Calm - N/A   Mostly Cloudy
3:03 AM 46.4 °F - 46.4 °F 100% 30.12 in 8.0 mi Calm Calm - N/A   Scattered Clouds
3:33 AM 46.4 °F 42.9 °F 46.4 °F 100% 30.15 in 1.8 mi NW 6.9 mph - N/A   Scattered Clouds
3:36 AM 46.4 °F 42.9 °F 46.4 °F 100% 30.15 in 1.2 mi NW 6.9 mph - N/A   Mostly Cloudy
3:44 AM 48.2 °F - 48.2 °F 100% 30.15 in 2.0 mi Calm Calm - N/A   Mostly Cloudy
3:53 AM 48.2 °F - 48.2 °F 100% 30.15 in 3.0 mi Calm Calm - N/A   Overcast
3:56 AM 48.0 °F - 48.0 °F 100% 30.19 in 3.0 mi Calm Calm - N/A   Overcast
4:49 AM 50.0 °F - 50.0 °F 100% 30.15 in 1.8 mi Calm Calm - N/A   Overcast
4:56 AM 50.0 °F - 50.0 °F 100% 30.18 in 0.8 mi Calm Calm - N/A   Mist
5:06 AM 50.0 °F - 50.0 °F 100% 30.14 in 0.2 mi Calm Calm - N/A Fog Fog
5:17 AM 50.0 °F - 50.0 °F 100% 30.14 in 0.2 mi Calm Calm - N/A Fog Fog
5:56 AM 50.0 °F - 50.0 °F 100% 30.16 in 0.2 mi Variable 3.5 mph - N/A Fog Fog
6:14 AM 50.0 °F - 50.0 °F 100% 30.12 in 0.2 mi Calm Calm - N/A Fog Fog
6:56 AM 50.0 °F - 50.0 °F 100% 30.15 in 0.2 mi Calm Calm - N/A Fog Fog
7:56 AM 50.0 °F - 50.0 °F 100% 30.17 in 0.2 mi Calm Calm - N/A Fog Fog
8:49 AM 51.8 °F - 51.8 °F 100% 30.12 in 0.2 mi Calm Calm - N/A Fog Fog
8:56 AM 51.1 °F - 51.1 °F 100% 30.16 in 0.2 mi Calm Calm - N/A Fog Fog
9:04 AM 51.8 °F - 51.8 °F 100% 30.12 in 1.0 mi Calm Calm - N/A   Mist
9:15 AM 51.8 °F - 51.8 °F 100% 30.12 in 0.8 mi Calm Calm - N/A   Mist
9:23 AM 51.8 °F - 51.8 °F 100% 30.12 in 1.5 mi Calm Calm - N/A   Mist
9:33 AM 51.8 °F - 51.8 °F 100% 30.11 in 2.0 mi NE 3.5 mph - N/A   Overcast
9:56 AM 53.1 °F - 53.1 °F 100% 30.15 in 2.0 mi Calm Calm - N/A   Mostly Cloudy
10:03 AM 53.6 °F - 53.6 °F 100% 30.10 in 6.0 mi Calm Calm - N/A   Mostly Cloudy
10:15 AM 53.6 °F - 53.6 °F 100% 30.10 in 6.0 mi Calm Calm - N/A   Scattered Clouds
10:45 AM 57.2 °F - 53.6 °F 88% 30.08 in 6.0 mi ENE 4.6 mph - N/A   Mostly Cloudy
10:56 AM 57.9 °F - 53.1 °F 84% 30.12 in 10.0 mi Variable 3.5 mph - N/A   Mostly Cloudy
11:09 AM 59.0 °F - 53.6 °F 82% 30.08 in 10.0 mi North 4.6 mph - N/A   Mostly Cloudy
11:31 AM 60.8 °F - 50.0 °F 68% 30.07 in 10.0 mi North 3.5 mph - N/A   Scattered Clouds
11:56 AM 60.1 °F - 50.0 °F 69% 30.10 in 10.0 mi ENE 3.5 mph - N/A   Clear
12:56 PM 60.1 °F - 50.0 °F 69% 30.07 in 10.0 mi Calm Calm - N/A   Clear
1:56 PM 61.0 °F - 51.1 °F 70% 30.04 in 10.0 mi ENE 3.5 mph - N/A   Clear
2:56 PM 60.1 °F - 51.1 °F 72% 30.03 in 10.0 mi NNE 4.6 mph - N/A   Partly Cloudy
3:56 PM 59.0 °F - 52.0 °F 78% 30.03 in 10.0 mi North 3.5 mph - N/A   Clear
4:56 PM 57.9 °F - 52.0 °F 81% 30.01 in 10.0 mi ENE 4.6 mph - N/A   Overcast
5:56 PM 57.0 °F - 53.1 °F 87% 30.01 in 10.0 mi Calm Calm - N/A   Clear
6:56 PM 55.0 °F - 52.0 °F 89% 30.01 in 10.0 mi Calm Calm - N/A   Overcast
7:56 PM 55.0 °F - 52.0 °F 89% 30.00 in 10.0 mi Calm Calm - N/A   Clear
8:56 PM 53.1 °F - 52.0 °F 96% 29.98 in 10.0 mi NNW 5.8 mph - N/A   Clear
9:56 PM 52.0 °F - 51.1 °F 97% 29.98 in 10.0 mi SSW 3.5 mph - N/A   Clear
10:56 PM 51.1 °F - 48.9 °F 92% 29.96 in 10.0 mi Calm Calm - N/A   Clear
11:43 PM 48.2 °F - 48.2 °F 100% 29.91 in 2.5 mi Calm Calm - N/A   Partly Cloudy
11:47 PM 48.2 °F - 48.2 °F 100% 29.91 in 1.0 mi Calm Calm - N/A   Mist
11:56 PM 50.0 °F - 50.0 °F 100% 29.94 in 1.8 mi Calm Calm - N/A   Scattered Clouds